Location: Ferchesar
(52.6477°N, 12.4298°E)
Time: 08:06:52
(UTC+01:00)

Tiros 1 despin weight - Pass Details

Date: 07 December 2021
Orbit: 592 x 641 km, 48.2° (Epoch: 19 January)

Event Time Altitude Azimuth Distance (km) Brightness Sun altitude
Rises 13:48:49 0° 247° (WSW) 2,837 ? 11.2°
Reaches altitude 10° 13:51:11 10° 241° (WSW) 1,930 ? 11.0°
Maximum altitude 13:55:22 43° 170° (S) 838 ? 10.7°
Drops below altitude 10° 13:59:32 10° 99° (E) 1,923 ? 10.4°
Sets 14:01:53 0° 92° (E) 2,825 ? 10.3°
